カタログに戻る

MAQSAT/ARIANE 5

運用中科学GTO
NORAD 25503·PAYLOAD·🇫🇷 France

打ち上げ Oct 21, 1998 から Guiana Space Centre

Loading…

TLE

経年Source: Space-Track

元期: Sep 14, 2026, 12:22 UTC

1 25503U 98059A   26257.51590043 -.00000031  00000-0  16181-2 0  9999
2 25503   6.7939 227.9533 7016413 209.7226  78.9150  2.24577595228976

AllMySatでMAQSAT/ARIANE 5をリアルタイム追跡

Download on the App Store